EW9034 Weather Reports


Display with metric or nautical units.
time (UTC)temp
F
wind
direction
speed
MPH
gust
MPH
rain 1hr
in
rain 24hr
in
rain mn
in
humidity
%
barometer
mb
20260507081512 48 30 3.0 5.0 0.00 0.00 0.00 54 1008.3
20260507080009 48 25 0.0 8.0 0.00 0.00 0.00 53 1008.3
20260507074518 49 23 2.0 4.0 0.00 0.00 0.00 50 1008.2
20260507073003 49 25 3.0 9.0 0.00 0.00 0.00 44 1008.1
20260507071500 50 58 2.0 4.0 0.00 0.00 0.00 48 1007.9
20260507070058 50 71 0.0 1.0 0.00 0.00 0.00 45 1007.7
20260507064559 51 69 1.0 5.0 0.00 0.00 0.00 38 1007.4
20260507063058 51 69 5.0 9.0 0.00 0.00 0.00 36 1008.1
20260507061551 52 95 3.0 7.0 0.00 0.00 0.00 35 1007.8
20260507060048 52 94 8.0 12.0 0.00 0.00 0.00 33 1007.6
20260507054552 52 80 7.0 11.0 0.00 0.00 0.00 33 1007.7
20260507053048 51 63 7.0 12.0 0.00 0.00 0.00 36 1008.0
20260507051546 52 40 9.0 13.0 0.00 0.00 0.00 34 1008.4
20260507050045 53 51 7.0 10.0 0.00 0.00 0.00 34 1008.2
20260507044545 53 61 5.0 11.0 0.00 0.00 0.00 34 1008.3
20260507043044 53 53 6.0 9.0 0.00 0.00 0.00 34 1008.4
20260507041543 54 47 6.0 11.0 0.00 0.00 0.00 32 1008.5
20260507040056 54 76 7.0 10.0 0.00 0.00 0.00 32 1008.6
20260507034553 55 116 5.0 9.0 0.00 0.00 0.00 30 1008.4
20260507033043 55 118 5.0 15.0 0.00 0.00 0.00 29 1008.3
20260507031541 55 93 10.0 15.0 0.00 0.00 0.00 30 1007.2
20260507030041 56 64 11.0 18.0 0.00 0.00 0.00 28 1007.2
20260507024540 57 90 14.0 20.0 0.00 0.00 0.00 28 1006.6
20260507023038 58 75 8.0 17.0 0.00 0.00 0.00 26 1007.0
20260507021538 59 77 9.0 15.0 0.00 0.00 0.00 26 1007.2
20260507020037 60 71 8.0 15.0 0.00 0.00 0.00 25 1007.4
20260507014537 61 80 10.0 14.0 0.00 0.00 0.00 25 1007.0
20260507013038 62 74 9.0 16.0 0.00 0.00 0.00 25 1006.8
20260507011539 63 86 12.0 17.0 0.00 0.00 0.00 25 1006.8
20260507010034 65 67 10.0 17.0 0.00 0.00 0.00 24 1007.0
20260507004533 65 62 10.0 15.0 0.00 0.00 0.00 24 1007.1
20260507003031 65 63 10.0 15.0 0.00 0.00 0.00 24 1007.2
20260507001541 65 78 8.0 14.0 0.00 0.00 0.00 26 1007.2
20260507000031 66 44 8.0 13.0 0.00 0.00 0.00 24 1007.2
20260506234541 67 65 8.0 14.0 0.00 0.00 0.00 24 1007.3
20260506233029 67 55 5.0 13.0 0.00 0.00 0.00 23 1007.3
20260506231531 68 71 9.0 12.0 0.00 0.00 0.00 24 1007.6
20260506230025 69 40 5.0 10.0 0.00 0.00 0.00 23 1007.7
20260506224527 68 76 2.0 10.0 0.00 0.00 0.00 24 1008.0
20260506223018 68 167 2.0 5.0 0.00 0.00 0.00 23 1008.3
20260506221516 67 169 6.0 9.0 0.00 0.00 0.00 23 1008.6
20260506220014 68 186 5.0 10.0 0.00 0.00 0.00 22 1008.8
20260506214512 67 298 4.0 13.0 0.00 0.00 0.00 25 1009.1
20260506213018 65 165 3.0 14.0 0.00 0.00 0.00 25 1009.3
20260506211509 65 246 7.0 11.0 0.00 0.00 0.00 23 1009.7
20260506210005 65 166 4.0 9.0 0.00 0.00 0.00 25 1010.0
20260506204504 65 237 6.0 12.0 0.00 0.00 0.00 25 1010.2
20260506203001 64 244 4.0 11.0 0.00 0.00 0.00 25 1010.5
20260506201558 62 260 2.0 10.0 0.00 0.00 0.00 26 1010.8
20260506200056 62 207 4.0 14.0 0.00 0.00 0.00 26 1011.0
20260506194553 61 227 3.0 12.0 0.00 0.00 0.00 25 1011.3
20260506193050 60 247 2.0 12.0 0.00 0.00 0.00 27 1011.7
20260506191551 62 202 6.0 16.0 0.00 0.00 0.00 30 1011.9
20260506190049 59 220 1.0 9.0 0.00 0.00 0.00 26 1012.4
20260506184553 60 167 2.0 12.0 0.00 0.00 0.00 26 1012.6
20260506183041 60 175 6.0 11.0 0.00 0.00 0.00 29 1012.8
20260506181538 58 215 5.0 14.0 0.00 0.00 0.00 27 1013.1
20260506180037 58 206 3.0 11.0 0.00 0.00 0.00 27 1013.3
20260506174532 57 144 6.0 9.0 0.00 0.00 0.00 28 1013.6
20260506173036 57 159 5.0 11.0 0.00 0.00 0.00 29 1013.9
20260506171524 55 243 7.0 13.0 0.00 0.00 0.00 29 1014.3
20260506170121 55 228 5.0 11.0 0.00 0.00 0.00 30 1014.5
20260506164518 55 210 7.0 11.0 0.00 0.00 0.00 31 1014.6
20260506163036 55 192 8.0 12.0 0.00 0.00 0.00 32 1014.9
20260506161515 54 191 8.0 15.0 0.00 0.00 0.00 34 1015.3
20260506160010 53 197 8.0 15.0 0.00 0.00 0.00 34 1015.5
20260506154524 52 233 8.0 16.0 0.00 0.00 0.00 35 1015.7
20260506153002 52 185 8.0 13.0 0.00 0.00 0.00 35 1016.0
20260506151558 50 184 8.0 14.0 0.00 0.00 0.00 36 1016.2
20260506150055 49 188 8.0 13.0 0.00 0.00 0.00 38 1016.4
20260506144550 45 294 2.0 5.0 0.00 0.00 0.00 50 1016.7
20260506143046 43 296 4.0 7.0 0.00 0.00 0.00 52 1016.9
20260506141541 41 296 4.0 7.0 0.00 0.00 0.00 55 1017.2
20260506140038 38 298 3.0 5.0 0.00 0.00 0.00 62 1017.3
20260506134533 34 299 3.0 5.0 0.00 0.00 0.00 68 1017.5
20260506133029 32 299 3.0 5.0 0.00 0.00 0.00 71 1017.8
20260506131531 30 299 5.0 10.0 0.00 0.00 0.00 72 1017.9
20260506130020 29 306 6.0 9.0 0.00 0.00 0.00 77 1018.0
20260506124516 26 309 4.0 8.0 0.00 0.00 0.00 82 1018.0
20260506123012 23 311 4.0 6.0 0.00 0.00 0.00 85 1018.1
20260506121509 22 311 1.0 4.0 0.00 0.00 0.00 84 1018.2
20260506120011 21 311 2.0 4.0 0.00 0.00 0.00 83 1018.3
20260506114505 20 311 2.0 4.0 0.00 0.00 0.00 80 1018.3
20260506113003 20 311 3.0 5.0 0.00 0.00 0.00 78 1018.3
20260506111501 22 311 3.0 6.0 0.00 0.00 0.00 79 1018.6
20260506110105 23 311 8.0 10.0 0.00 0.00 0.00 79 1018.9
20260506104608 23 325 4.0 8.0 0.00 0.00 0.00 82 1018.8
20260506103105 23 326 4.0 6.0 0.00 0.00 0.00 83 1019.0
20260506101618 22 327 2.0 5.0 0.00 0.00 0.00 84 1019.1
20260506100055 20 327 4.0 6.0 0.00 0.00 0.00 81 1019.3
20260506094557 21 327 2.0 5.0 0.00 0.00 0.00 82 1019.3
20260506093057 21 327 3.0 6.0 0.00 0.00 0.00 82 1019.6
20260506091548 20 327 4.0 6.0 0.00 0.00 0.00 81 1019.8
20260506090059 20 328 3.0 5.0 0.00 0.00 0.00 79 1019.7
20260506084545 21 329 5.0 6.0 0.00 0.00 0.00 79 1020.0
20260506083038 23 330 5.0 6.0 0.00 0.00 0.00 78 1019.9